Regional Weather Roundup
Issued by NWS

Home | Current Version | Previous Version | Graphics & Text | Print | Product List | Glossary On
Versions: 1 2 3 4 5 6 7 8 9 10 11 12 13 14 15 16 17 18 19 20 21 22 23 24 25 26 27 28 29 30 31 32 33 34 35 36 37 38 39 40 41 42 43 44 45 46 47 48 49 50
000
ASUS43 KOAX 270102
RWRNE

WEATHER ROUNDUP FOR NEBRASKA
NATIONAL WEATHER SERVICE OMAHA NE
800 PM CDT TUE AUG 26 2014

NOTES: SATELLITE DATA IS BEING USED TO AUGMENT CLOUD COVER ABOVE
       12000 FEET.
       "FAIR" INDICATES FEW OR NO CLOUDS BELOW 12,000 FEET WITH NO
       SIGNIFICANT WEATHER AND/OR OBSTRUCTIONS TO VISIBILITY.

  * THESE STATIONS DO NOT REPORT WEATHER SUCH AS RAIN...SNOW OR FOG.

NEZ001>004-019>022-054>056-270200-
NEBRASKA PANHANDLE

CITY           SKY/WX    TMP DP  RH WIND       PRES   REMARKS
SCOTTSBLUFF    CLOUDY    70  66  87 S10       30.11R
ALLIANCE       CLOUDY    73  60  63 S18       30.09F
CHADRON        PTCLDY    80  60  50 E8        30.05S
KIMBALL        MOCLDY    74  60  60 S10       30.16R
SIDNEY         MOCLDY    74  61  63 S12       30.16R
$$

NEZ057>060-069>072-079>082-270200-
SOUTHWEST NEBRASKA

CITY           SKY/WX    TMP DP  RH WIND       PRES   REMARKS
NORTH PLATTE   CLEAR     75  63  66 S3        30.10S
IMPERIAL       PTCLDY    75  63  66 E7        30.11R
LEXINGTON      CLEAR     74  69  84 E3        30.10S
MCCOOK         MOCLDY    77  67  71 NE8       30.09R
OGALLALA       MOCLDY    73  62  68 SE5       30.12R
$$

NEZ005>010-023>029-035>040-094-270200-
NORTH CENTRAL NEBRASKA

CITY           SKY/WX    TMP DP  RH WIND       PRES   REMARKS
VALENTINE      CLEAR     77  61  57 SE9       30.08R
AINSWORTH      CLEAR     71  63  75 E7        30.10R
BROKEN BOW     CLEAR     74  66  76 SE7       30.10S
O`NEILL        CLEAR     71  64  78 SE8       30.12S
ORD            PTCLDY    72  66  81 E6        30.09S
THEDFORD       PTCLDY    77  62  59 S10       30.11R
$$

NEZ041-046>049-061>064-073>077-083>087-270200-
SOUTH CENTRAL NEBRASKA

CITY           SKY/WX    TMP DP  RH WIND       PRES   REMARKS
GRAND ISLAND   MOCLDY    76  68  76 E6        30.09S
AURORA         CLEAR     73  70  90 E6        30.09S
HASTINGS       CLEAR     74  67  78 E8        30.08S
HEBRON         CLEAR     81  66  59 CALM      30.05S
HOLDREGE       CLEAR     75  69  80 CALM      30.09R
KEARNEY *      CLEAR     75  70  83 NE7       30.10R
YORK           CLEAR     73 N/A N/A E9        30.10R
$$

NEZ011>018-030>034-042>045-270200-
NORTHEAST NEBRASKA

CITY           SKY/WX    TMP DP  RH WIND       PRES   REMARKS
NORFOLK        PTCLDY    70  64  81 E9        30.11F
ALBION         CLOUDY    71  65  81 E3        30.11R
BLAIR          MOCLDY    73  67  81 NE3       30.11S
FREMONT        CLOUDY    74  65  72 E7        30.11S
TEKAMAH        PTCLDY    73  66  78 E3        30.10F
WAYNE          CLEAR     68  63  84 E5        30.12F
$$

NEZ050>053-065>068-078-088>093-270200-
SOUTHEAST NEBRASKA

CITY           SKY/WX    TMP DP  RH WIND       PRES   REMARKS
LINCOLN        CLEAR     75  67  76 E12       30.09S
OMAHA EPPLEY   MOCLDY    73  67  81 E7        30.10S
BEATRICE       CLEAR     80  70  72 E9        30.07R
FALLS CITY     MOCLDY    79  70  74 NE5       30.07R
NEBRASKA CITY  CLEAR     74  69  83 E6        30.10R
PLATTSMOUTH    PTCLDY    73  67  82 NE6       30.11S
$$

NEZ044-045-051>053-067-270200-
OMAHA AREA

CITY           SKY/WX    TMP DP  RH WIND       PRES   REMARKS
OMAHA EPPLEY   MOCLDY    73  67  81 E7        30.10S
BLAIR          MOCLDY    73  67  81 NE3       30.11S
FREMONT        CLOUDY    74  65  72 E7        30.11S
MILLARD        PTCLDY    76  66  71 E5        30.10S
OFFUTT AFB     CLOUDY    73  71  92 E6        30.10S
PLATTSMOUTH    PTCLDY    73  67  82 NE6       30.11S
WAHOO          FAIR      72  65  79 NE6       30.10S
$$



USA.gov is the U.S. government's official web portal to all federal, state and local government web resources and services.